{"data":{"norad_id":69318,"epoch":"2026-09-19T07:06:25.099776Z","epoch_age_seconds":133116,"freshness":"FRESH","line1":"1 69318U 26119Y   26262.29612384  .00019067  00000+0  59081-3 0  9997","line2":"2 69318  97.2844 287.1218 0001608  93.5455 266.5972 15.33479007 18485","mean_motion":15.33479007,"eccentricity":0.0001608,"inclination_deg":97.2844,"raan_deg":287.1218,"arg_perigee_deg":93.5455,"mean_anomaly_deg":266.5972,"bstar":0.00059081,"rev_number":1848,"period_min":93.904122157963,"perigee_km":464.34154793948,"apogee_km":466.54244294442,"semimajor_km":6843.578995442,"source":"CELESTRAK","updated_at":"2026-09-20T09:00:44.158486Z"}}